GFSMA_700_rhum_021.txt.gz
RH
52 61 65 61 69 66 50 36 34 40 45 47 47 42 37 35 33 29 24 21 19 17 15 14 12 9 6 4 4 4 5 8 12 14 13 12 12 11 12 12 15 20 30
56 53 57 61 57 38 34 39 47 46 46 45 43 41 38 32 27 24 22 18 15 13 11 9 8 7 5 3 3 2 2 2 2 3 8 11 13 13 13 12 12 14 15
34 39 41 38 33 37 43 44 41 41 44 46 44 40 32 28 25 23 17 14 10 9 8 7 6 6 5 4 4 4 4 3 3 3 3 3 5 11 12 12 13 12 13
30 33 32 30 37 45 41 39 42 38 38 37 35 30 27 26 25 19 15 11 9 8 6 6 6 5 5 4 4 4 4 4 3 3 3 3 3 3 6 11 12 13 11
32 32 32 36 41 40 40 50 45 30 30 30 29 28 28 27 23 18 14 10 8 7 6 5 5 4 4 4 4 4 4 5 6 5 4 8 5 4 3 4 9 11 12
36 36 37 42 42 47 44 55 60 41 32 31 31 30 29 26 22 18 12 10 8 7 6 6 5 5 6 6 6 10 19 32 45 40 56 38 24 13 10 5 4 5 9
43 44 46 56 55 47 44 48 55 56 34 34 33 32 30 25 21 14 9 8 7 7 7 5 5 6 8 8 9 13 20 31 45 55 54 49 34 20 14 8 6 4 3
52 54 57 57 50 52 56 50 52 43 37 38 36 34 30 23 18 12 8 8 8 7 8 8 9 9 9 11 14 15 14 17 20 19 19 16 13 17 17 11 11 9 5
51 54 57 61 64 67 71 72 69 54 44 41 38 34 27 22 16 11 8 8 9 7 5 8 13 14 17 12 8 10 15 23 31 38 31 24 28 41 34 16 14 14 15
58 61 66 70 74 84 94 96 90 85 53 45 41 32 24 18 12 8 8 7 6 6 8 18 25 26 19 25 27 27 28 29 30 32 38 42 54 47 39 10 9 10 11
63 65 68 70 78 88 89 91 89 97 55 50 44 31 20 12 7 5 5 6 6 10 18 32 48 34 40 42 37 20 25 41 42 44 47 40 36 40 25 8 6 8 10
62 66 69 73 84 90 98 98 93 86 68 70 38 25 16 8 5 4 5 7 8 12 31 57 70 64 43 40 43 40 18 11 20 50 61 59 46 27 17 13 9 6 8
69 77 79 91 94 98 97 99 96 97 90 82 31 23 8 5 6 7 11 11 10 17 52 84 86 70 51 49 31 23 14 12 12 13 14 17 17 20 22 16 10 8 9
89 90 99 96 97 98 100 99 100 96 93 74 47 12 6 7 11 15 15 15 17 25 51 68 66 63 50 32 20 12 11 11 10 12 12 11 10 9 8 8 9 10 12
96 98 98 96 98 98 100 100 98 96 82 46 33 9 22 28 14 18 24 34 44 47 35 37 43 38 29 14 11 10 10 12 12 15 17 17 17 16 15 14 14 13 13
99 99 99 99 100 100 100 100 95 86 80 46 38 62 31 18 23 35 50 56 53 47 40 43 39 22 14 12 13 15 17 15 14 15 16 18 19 19 21 18 19 20 21
100 99 100 100 100 100 100 97 88 89 79 74 74 36 16 22 34 63 81 81 58 61 57 34 21 14 14 19 19 15 14 14 16 21 29 40 46 48 46 44 41 39 36
100 100 100 100 100 99 96 92 85 88 86 44 24 21 23 27 37 42 76 59 59 50 32 23 14 18 21 17 15 16 19 22 36 48 58 60 54 46 39 34 29 27 28
100 100 100 100 100 97 90 85 92 84 51 34 23 26 33 38 39 47 53 58 47 31 25 16 18 20 17 21 22 24 26 40 59 68 64 52 42 38 35 35 36 36 35
100 100 100 99 97 92 87 91 80 45 40 28 24 36 68 87 75 52 61 62 36 31 18 22 20 18 22 24 24 23 29 59 62 58 49 53 52 52 53 54 53 53 49
100 100 100 98 94 93 96 88 51 44 38 21 26 41 71 100 95 54 62 50 37 20 22 19 19 22 21 22 23 26 55 59 53 63 56 63 59 55 50 49 50 56 52
100 99 100 95 95 96 95 62 49 47 20 23 37 54 48 59 56 59 55 38 19 21 18 16 22 22 21 22 23 32 64 54 56 72 53 53 59 51 50 50 62 63 68
100 98 96 94 95 94 77 45 53 19 15 21 32 42 79 77 55 54 40 20 19 20 15 20 22 25 23 22 22 32 64 62 70 72 61 51 59 62 68 61 62 67 100
96 96 95 96 94 72 36 38 20 15 17 20 24 30 42 46 51 48 24 18 23 17 18 22 23 23 23 21 22 29 62 63 70 77 87 60 82 74 67 63 58 64 100
96 97 96 95 89 44 29 21 17 17 18 21 24 28 34 47 51 43 20 20 21 17 18 20 21 21 19 20 22 24 64 63 70 71 94 78 80 72 76 61 62 61 74
96 96 96 71 45 24 21 19 19 21 24 27 30 32 34 51 56 42 20 21 20 15 16 17 18 17 14 12 17 25 61 62 74 68 85 68 88 99 56 71 76 75 66

GFSMA_700_rhum_024.txt.gz
RH
54 66 66 62 57 58 39 35 43 48 46 42 43 44 43 42 36 30 26 24 20 15 12 11 9 8 6 4 4 3 3 3 3 3 4 4 4 5 7 10 12 12 11
46 50 44 47 45 38 41 49 48 45 43 36 35 35 35 34 30 28 26 24 18 14 11 9 8 7 6 4 4 4 4 4 5 5 4 4 3 3 4 6 6 7 11
33 36 39 35 37 50 52 48 46 47 42 33 29 28 30 29 28 28 27 24 19 14 10 9 7 6 6 5 4 4 4 5 7 6 5 4 4 4 3 3 5 8 7
33 35 36 39 47 48 43 41 42 51 55 56 46 30 28 29 28 28 28 24 20 16 11 9 8 7 6 5 5 5 6 6 6 6 5 5 5 4 4 3 2 2 4
37 36 37 40 45 47 51 51 48 47 51 53 51 35 32 31 31 30 29 26 22 16 12 10 8 7 6 6 6 6 7 6 6 5 5 5 4 3 3 3 3 3 2
40 39 41 43 48 54 54 50 52 45 45 48 45 39 35 34 32 32 31 28 22 17 13 10 10 9 8 6 5 5 5 5 5 4 3 5 4 4 3 1 2 2 2
42 45 47 50 53 53 55 58 60 64 73 70 64 52 41 37 36 35 34 29 23 18 14 11 10 10 9 6 5 5 5 6 5 6 7 5 4 2 5 5 6 4 4
43 45 48 51 57 60 63 68 72 73 80 72 77 70 50 50 52 42 37 33 27 23 16 10 8 7 6 6 5 6 6 6 6 5 5 5 6 8 8 7 7 10 9
46 49 53 58 63 66 69 73 76 81 90 88 77 76 58 58 62 52 38 34 28 22 15 9 6 5 6 7 9 10 9 7 6 8 11 12 13 13 15 15 14 12 15
52 56 60 63 65 68 72 73 78 97 81 92 85 82 66 74 77 65 37 26 18 9 6 7 7 9 11 16 20 18 17 22 22 16 15 16 18 20 19 22 20 19 26
55 59 62 62 64 68 74 88 96 98 93 94 91 88 92 88 79 70 52 19 8 8 8 10 14 23 40 46 44 39 29 25 23 21 18 14 13 14 20 25 26 20 15
65 66 66 67 67 73 91 97 98 96 95 84 91 91 88 76 76 41 22 10 8 13 16 17 27 43 54 67 54 36 34 28 24 18 14 13 12 11 10 10 20 24 18
67 64 68 86 100 96 96 98 99 98 89 94 94 83 66 57 36 16 12 28 29 19 17 23 38 48 46 36 32 34 28 21 13 10 9 9 10 10 11 11 10 9 14
76 78 96 92 82 95 88 98 99 100 96 93 80 70 67 39 37 59 48 23 14 15 17 30 37 42 40 38 31 21 16 12 11 12 14 15 14 14 14 11 10 10 10
80 99 90 98 96 95 99 94 100 99 98 89 74 73 66 72 66 28 16 17 23 24 23 38 44 46 43 29 20 13 14 17 17 15 13 12 12 12 12 12 13 15 15
97 98 99 99 99 100 100 100 99 96 88 71 71 82 74 33 22 16 18 25 30 43 31 41 47 38 29 19 16 19 17 13 13 13 14 16 18 17 16 14 13 12 12
99 99 100 98 99 100 100 100 99 92 73 72 85 69 42 29 17 20 31 39 36 41 42 42 36 32 21 18 20 16 17 20 21 21 22 27 31 34 38 39 40 38 40
99 100 100 99 99 100 100 100 97 79 71 76 72 46 36 17 19 29 55 80 52 46 51 40 36 23 18 19 15 19 24 27 25 25 31 43 49 50 49 47 43 39 36
100 99 97 98 98 100 100 96 93 86 83 76 48 40 22 15 17 24 70 92 60 51 50 38 24 17 16 16 19 23 24 24 26 44 60 60 53 48 46 45 44 44 44
99 98 98 97 98 96 98 95 92 92 79 52 47 31 15 17 20 28 44 53 47 49 41 24 16 18 15 19 21 22 21 22 29 61 56 51 52 49 47 45 45 45 46
96 99 97 95 97 98 95 94 89 84 68 53 44 15 16 22 26 31 61 52 49 43 25 16 19 14 16 17 20 21 20 20 44 62 52 63 54 53 49 43 40 38 39
100 98 93 94 99 95 92 94 88 74 57 52 20 15 17 21 25 32 41 48 46 34 17 19 15 13 14 16 18 19 19 18 46 64 51 58 53 48 50 52 46 43 49
99 98 98 97 96 95 97 95 85 65 48 24 16 16 18 21 25 29 38 46 46 25 18 20 13 13 14 15 14 13 15 18 55 68 55 55 58 63 78 58 50 53 54
96 99 99 96 95 98 96 96 90 49 22 19 17 19 21 26 30 33 40 49 48 22 19 18 12 13 14 14 14 12 12 15 50 74 68 57 70 72 85 76 54 55 54
97 97 97 97 96 97 95 68 41 22 20 19 20 22 25 30 36 37 42 55 54 22 22 18 13 13 13 14 14 13 11 14 31 67 81 70 68 73 75 88 60 57 54
96 97 96 96 96 85 74 45 24 22 21 22 23 27 30 35 41 43 46 61 64 26 23 19 14 14 14 15 15 14 12 14 29 60 80 67 66 77 45 62 85 68 55

GFSMA_700_rhum_027.txt.gz
RH
46 49 62 67 62 63 37 36 39 35 38 38 41 40 34 30 29 29 28 28 27 25 21 17 12 9 7 6 5 4 4 3 3 4 4 5 4 4 4 3 4 7 11
57 59 58 47 40 33 38 42 38 40 44 49 53 54 52 37 30 30 30 30 29 27 23 19 15 11 9 7 6 4 4 4 4 4 5 7 8 6 5 4 3 3 3
43 38 37 32 34 41 42 42 47 45 43 42 47 50 46 39 36 33 32 31 31 29 26 22 18 14 12 10 9 7 6 6 6 8 10 12 12 13 11 6 5 4 3
35 36 35 36 39 41 44 51 50 47 50 50 52 50 50 46 38 32 32 31 31 32 30 27 23 19 17 15 12 11 9 7 7 7 10 13 16 17 19 20 12 8 6
38 38 36 37 38 44 49 53 55 61 58 64 66 54 52 54 57 42 41 46 43 38 35 32 27 23 20 17 14 12 11 11 10 9 8 9 13 18 22 24 22 11 10
39 39 38 38 40 46 51 56 61 63 67 71 74 70 66 64 62 50 50 54 54 49 42 40 37 34 32 28 20 14 10 9 8 7 6 7 9 12 14 16 16 13 12
40 38 39 42 46 52 58 62 64 66 70 73 77 77 76 71 60 61 61 63 62 60 51 49 49 45 39 33 25 18 12 8 7 6 6 7 8 8 8 11 6 5 8
42 42 44 48 52 57 61 65 68 67 71 83 86 89 74 70 74 64 69 70 69 68 59 52 52 50 42 31 24 16 10 7 8 10 11 10 8 8 7 4 6 5 5
43 46 49 52 56 61 64 67 70 76 83 90 94 90 88 66 69 66 76 74 66 63 61 56 47 33 22 14 9 9 13 17 17 18 17 13 11 11 11 13 12 10 8
46 47 50 54 58 61 64 74 82 94 92 97 95 93 71 68 70 71 63 58 60 58 48 32 18 13 12 18 20 17 15 17 17 20 19 19 19 18 17 16 14 14 15
56 50 53 57 65 75 91 98 99 98 98 100 74 78 67 69 68 59 54 53 51 34 21 21 32 32 21 15 16 18 17 15 16 19 19 21 21 19 17 15 14 14 14
88 74 69 67 80 89 95 86 86 89 97 92 74 79 76 72 60 51 52 50 49 56 55 33 18 17 17 17 19 22 24 25 26 25 24 21 18 14 12 11 11 12 13
89 91 96 93 87 98 100 92 69 85 88 80 80 82 72 56 52 60 68 69 57 37 20 16 17 22 22 24 29 33 30 26 24 22 18 15 14 14 14 14 12 10 9
92 93 94 83 74 95 97 98 86 97 82 76 84 78 59 56 64 64 51 40 26 18 12 11 18 24 29 32 29 26 27 24 17 16 16 16 14 12 12 12 12 13 14
94 84 79 80 94 97 98 91 93 98 87 91 87 65 61 66 65 56 38 24 15 13 21 31 20 22 31 31 30 28 20 16 16 12 10 10 11 13 14 14 13 12 11
94 99 94 86 97 84 82 81 87 96 98 94 80 66 66 69 57 39 24 15 16 24 18 37 30 33 36 32 26 16 16 13 10 12 13 14 15 15 17 22 26 28 27
99 99 96 98 85 83 98 79 98 98 99 88 80 74 75 63 44 29 14 15 16 20 24 30 30 37 33 22 16 16 12 12 13 15 16 15 15 19 32 43 48 49 49
99 100 100 79 80 99 80 99 94 98 95 91 73 76 68 49 44 15 14 15 18 24 32 28 39 33 21 17 17 12 13 16 18 18 18 17 25 44 51 50 47 45 44
80 100 100 97 99 87 90 87 99 95 91 81 83 77 56 48 24 15 15 17 19 28 30 35 37 27 18 18 12 11 14 16 18 18 17 23 49 52 54 53 48 46 44
98 100 96 100 98 100 100 99 96 95 79 87 88 69 53 42 16 18 17 20 23 26 37 42 38 23 19 15 10 11 13 15 15 18 19 43 57 57 56 49 46 38 34
98 99 99 100 100 98 98 97 95 86 87 98 84 62 54 22 17 18 20 25 25 30 42 45 35 21 19 11 10 11 11 11 12 15 21 56 63 62 57 49 41 37 38
100 100 81 98 100 92 96 96 97 96 100 99 75 65 33 21 18 20 22 26 30 36 43 48 34 21 18 10 10 10 11 11 11 15 15 52 66 62 56 49 42 44 45
92 100 94 98 100 98 95 96 98 95 99 91 80 46 24 21 20 22 25 27 33 40 48 52 35 22 17 10 10 11 12 11 11 15 18 40 66 62 61 75 57 52 45
95 98 99 98 96 97 96 96 96 96 84 66 44 26 24 22 22 24 29 31 38 44 54 50 40 23 16 10 11 14 15 13 12 16 31 42 64 64 60 79 70 69 47
94 95 94 95 96 97 97 95 94 80 70 50 27 24 24 26 27 29 33 37 43 50 61 55 46 25 18 11 12 15 16 16 14 16 36 51 64 63 54 73 81 64 49
89 94 95 97 91 76 80 69 70 63 50 30 26 24 26 32 36 37 39 44 47 63 66 65 59 28 21 12 12 15 16 16 15 14 27 46 67 66 49 58 74 71 58

GFSMA_700_rhum_030.txt.gz
RH
40 44 53 72 72 58 43 37 37 39 41 37 38 38 40 43 40 38 35 31 29 29 29 29 27 24 20 16 12 10 7 5 4 4 4 3 4 4 6 8 6 4 4
47 61 73 66 51 37 37 39 45 43 36 34 32 36 38 39 44 45 38 30 29 30 32 32 31 29 26 22 18 16 15 12 9 6 5 5 5 6 7 9 10 12 11
69 51 48 41 33 36 38 44 49 44 48 44 44 47 47 48 50 56 55 47 38 47 48 46 39 35 34 33 32 35 33 29 24 20 15 12 8 7 8 10 13 16 17
43 40 36 34 35 36 35 44 45 48 52 49 60 55 58 56 53 53 47 52 48 50 46 49 50 47 44 45 45 45 44 43 40 36 32 26 19 15 13 11 11 12 18
38 35 35 35 34 36 38 43 47 55 56 61 65 64 63 69 64 51 54 52 51 56 55 44 51 53 49 48 47 46 46 45 43 41 37 32 25 18 15 14 13 14 16
38 36 36 36 36 39 44 51 54 60 65 68 68 67 75 73 66 69 61 53 56 52 60 55 50 50 50 49 47 46 46 44 40 34 30 24 17 12 9 8 9 10 10
40 40 40 40 41 45 50 55 59 63 66 68 70 71 67 64 66 66 51 50 51 53 64 53 47 48 51 44 42 47 45 39 33 25 16 13 12 15 17 16 14 13 14
39 42 41 43 45 48 52 56 60 64 68 71 74 85 94 89 60 64 52 49 49 50 48 42 37 35 38 43 39 37 35 29 25 26 27 24 21 19 17 15 13 13 12
45 41 44 45 48 51 54 60 62 69 93 96 100 94 84 85 71 65 58 56 49 43 39 35 30 32 35 39 42 46 44 46 34 22 18 16 14 11 10 11 12 14 15
83 48 44 45 47 49 52 58 82 99 99 80 81 74 83 73 71 76 62 52 43 36 35 36 40 44 47 53 45 38 31 19 12 8 9 10 14 16 17 17 18 17 19
93 98 84 58 51 54 65 90 99 99 95 68 68 76 70 68 67 65 57 51 46 40 38 40 46 48 38 29 13 8 7 7 8 11 14 16 19 21 21 20 19 17 16
99 100 99 96 71 88 95 94 100 99 98 85 74 87 69 70 68 57 48 46 46 43 46 47 37 27 12 8 8 7 10 11 16 19 19 21 22 21 18 17 16 16 15
90 97 99 99 100 100 99 97 100 99 85 93 83 77 76 81 67 52 46 48 49 51 44 37 17 10 9 9 10 9 15 16 18 21 21 18 16 16 16 15 14 13 14
99 97 99 97 96 99 98 97 99 82 96 80 90 90 91 87 72 54 52 52 50 41 65 83 93 49 14 12 13 16 19 20 20 18 17 16 12 9 9 10 10 10 10
93 83 97 100 100 100 99 100 92 100 90 90 95 96 96 92 71 57 57 53 42 26 15 81 81 86 23 17 19 20 22 21 19 18 12 7 8 12 13 13 13 13 14
96 86 84 96 99 98 99 96 88 98 92 96 99 98 94 71 62 62 56 46 31 12 12 75 98 90 23 24 25 23 23 21 17 8 6 8 11 13 14 13 14 19 25
96 95 100 99 98 99 92 80 100 86 93 100 97 96 78 69 70 64 52 46 16 18 39 42 88 95 30 21 26 24 21 16 7 6 8 9 11 12 13 15 31 43 46
92 100 99 95 98 98 81 94 92 91 89 96 95 86 79 80 76 58 51 36 17 40 36 17 38 27 34 31 29 24 20 8 6 6 8 9 10 12 18 39 46 47 47
79 92 99 93 100 97 83 85 97 98 98 96 92 92 88 90 79 56 64 58 80 76 60 21 20 25 30 35 29 24 14 7 6 7 7 7 9 13 39 50 49 47 44
98 98 98 94 91 100 80 96 93 98 98 96 94 89 94 97 73 58 76 95 82 74 62 25 24 27 36 36 28 23 10 7 8 8 7 7 10 17 48 53 51 47 40
100 100 99 84 99 87 98 99 98 96 94 96 96 92 99 96 70 64 49 48 45 63 34 28 34 33 41 39 24 19 9 7 12 11 9 8 13 28 62 63 61 51 42
84 66 90 93 99 93 89 97 93 96 97 94 92 99 100 93 78 51 31 27 26 45 32 31 33 38 45 42 27 19 9 9 14 16 13 10 17 36 70 91 84 58 62
82 95 91 99 100 99 92 96 96 96 92 92 96 100 78 68 48 28 27 26 23 27 36 42 39 42 49 46 29 20 10 11 16 17 16 14 16 35 95 100 68 63 59
97 88 95 94 90 95 93 95 94 92 88 84 88 81 67 55 34 27 32 29 27 30 36 38 43 49 56 54 32 21 11 11 16 16 16 16 16 31 60 66 59 68 57
82 88 90 76 85 82 86 80 65 43 38 34 46 54 52 38 29 29 36 36 36 45 44 42 46 51 58 60 38 24 14 12 14 14 15 16 16 22 53 60 68 71 64
44 41 41 42 41 39 31 25 26 24 23 24 24 25 25 26 31 30 39 45 46 66 64 52 54 62 68 69 56 28 19 12 14 12 15 17 16 21 37 61 57 63 66